Location: Newark
(45.6833°N, 12.6333°E)
Time: 11:18:13
(UTC+00:00)

N. Korean satellite - Pass Details

Date: 20 November 2019
Orbit: 456 x 506 km, 97.2° (Epoch: 06 December)

Event Time Altitude Azimuth Distance (km) Brightness Sun altitude
Rises 04:08:13 0° 28° (NNE) 2,615 10.6 -21.9°
Reaches altitude 10° 04:10:52 10° 48° (NE) 1,718 9.9 -21.5°
Maximum altitude 04:13:25 18° 92° (E) 1,302 9.7 -21.0°
Drops below altitude 10° 04:15:56 10° 136° (SE) 1,692 10.0 -20.6°
Sets 04:18:31 0° 156° (SSE) 2,559 10.7 -20.1°
